STARLINK-34709

Last updated on Tue Aug 19 2025 00:02:05 GMT+0000 (Coordinated Universal Time)

1 64844U 25152C 25230.57168802 -.00416614 00000+0 -10260-1 0 9993 2 64844 97.6033 84.1968 0001137 71.0345 289.1024 15.42178526 4780

Satellite not in orbit